[[{"header":{"parameterUnit":"m.s-1","parameterCategory":1,"la1":30.2991,"la2":30.254,"lo1":-89.0895,"lo2":-89.0444,"dy":0.0017,"dx":0.0017,"nx":28,"ny":28,"refTime":"2025-04-04T21:00:00:Z","depth":0,"parameterNumber":2,"parameterNumberName":"U-component_of_WINDS"},"data":[0,0,0,0,0,0,0,0,0,0,0,0,0,0,0,0,0,0,0,0,0,0,0,0,0,0,0,0,0,0,0,0,0,0,0,0,0,0,0,0,0,0,0,0,0,0,0,0,0,0,0,0,0,0,0,0,0,0,-4.7536,-4.7538,0,-4.7759,-4.7761,-4.7764,-4.783,-4.7829,-4.7827,-4.7826,-4.8054,-4.8061,-4.8068,0,0,0,0,0,0,0,0,0,0,0,0,0,-4.7168,-4.7175,-4.7536,-4.7539,-4.7541,-4.7758,-4.7761,-4.7764,-4.783,-4.7829,-4.7827,-4.7826,-4.8052,-4.806,-4.8069,0,0,0,0,0,0,0,0,0,0,0,0,0,-4.7353,-4.7177,-4.7535,-4.76,-4.7608,-4.7758,-4.7761,-4.7765,-4.783,-4.7828,-4.7827,-4.7825,-4.8049,-4.8059,-4.807,-4.8171,0,0,-4.8103,-4.8107,0,0,0,0,0,0,0,0,-4.7342,-4.7366,-4.7588,-4.7596,-4.7605,-4.7765,-4.7715,-4.7901,-4.7831,-4.7746,-4.7826,-4.7824,-4.7959,-4.7977,-4.8023,-4.8181,-4.8191,-4.8104,-4.811,-4.8115,-4.8118,0,0,0,0,0,0,0,-4.733,-4.7357,-4.7624,-4.7591,-4.7602,-4.7619,-4.7643,-4.7751,-4.7859,-4.7753,-4.7759,-4.7784,-4.7964,-4.8012,-4.8029,-4.8194,-4.8103,-4.8113,-4.8119,-4.8124,-4.8447,-4.845,0,0,0,0,0,0,-4.7306,-4.7346,-4.7617,-4.7631,-4.7467,-4.7627,-4.7654,-4.7715,-4.7859,-4.7879,-4.7785,-4.7786,-4.7995,-4.8016,-4.8037,-4.8164,-4.8115,-4.8125,-4.8131,-4.8445,-4.8448,-4.845,0,0,0,0,0,0,-4.7298,-4.7329,-4.7608,-4.749,-4.7527,-4.7635,-4.7703,-4.772,-4.7769,-4.7883,-4.7902,-4.7815,-4.7994,-4.8022,-4.8137,-4.8172,-4.813,-4.8139,-4.8443,-4.8446,-4.8449,-4.8418,0,0,0,0,0,0,-4.7287,-4.7326,-4.7365,-4.749,-4.7533,-4.7704,-4.7705,-4.7726,-4.7787,-4.7791,-4.7916,-4.7935,-4.7995,-4.8121,-4.8148,-4.8186,-4.8148,-4.844,-4.8444,-4.8448,-4.8416,-4.842,-4.8423,0,0,0,0,0,-4.7273,-4.7347,-4.7366,-4.7399,-4.7584,-4.7706,-4.773,-4.7798,-4.779,-4.783,-4.7904,-4.7931,-4.8165,-4.8132,-4.8163,-4.8205,-4.8438,-4.8443,-4.8448,-4.8415,-4.8419,-4.8423,0,0,0,0,0,0,-4.7222,-4.7364,-4.7387,-4.7504,-4.7592,-4.7716,-4.7769,-4.78,-4.7892,-4.7891,-4.7972,-4.8,-4.8109,-4.817,-4.813,-4.8311,-4.8302,-4.8314,-4.8267,-4.8272,-4.8275,-4.8257,-4.8157,0,0,0,0,0,-4.7224,-4.7311,-4.7432,-4.7523,-4.7566,-4.766,-4.7715,-4.776,-4.7855,-4.7892,-4.7974,-4.8065,-4.8159,-4.8219,-4.8312,-4.8426,-4.8454,-4.8471,-4.8474,-4.8476,-4.8484,-4.8549,-4.8558,-4.8466,-4.8466,-4.8466,0,0,-4.723,-4.7319,-4.7368,-4.7515,-4.7588,-4.7676,-4.7691,-4.7783,-4.785,-4.7907,-4.802,-4.8083,-4.819,-4.8305,-4.836,-4.8359,-4.8517,-4.8483,-4.8484,-4.8491,-4.8555,-4.8564,-4.8571,-4.847,-4.8469,-4.8469,0,0,-4.7284,-4.7361,-4.7445,-4.7519,-4.763,-4.7693,-4.7713,-4.7833,-4.7877,-4.7993,-4.8038,-4.8118,-4.8279,-4.8353,-4.8412,-4.8497,-4.8525,-4.8525,-4.8541,-4.8603,-4.861,-4.8617,-4.8646,-4.8656,-4.8533,-4.8533,-4.8533,0,-4.7276,-4.7411,-4.7484,-4.7575,-4.7638,-4.7695,-4.778,-4.7849,-4.7985,-4.8027,-4.8024,-4.8228,-4.8304,-4.8436,-4.8457,-4.8504,-4.8529,-4.851,-4.8604,-4.8611,-4.8619,-4.8647,-4.8658,-4.8533,-4.8533,-4.8533,-4.8533,0,-4.7396,-4.7489,-4.7544,-4.7673,-4.7743,-4.7831,-4.7917,-4.7979,-4.8019,-4.8082,-4.8199,-4.8293,-4.8406,-4.8441,-4.8481,-4.8581,-4.8576,-4.8588,-4.858,-4.8625,-4.8653,-4.8665,-4.8531,-4.8532,-4.8532,-4.8532,0,0,-4.7421,-4.7592,-4.7611,-4.767,-4.7799,-4.7872,-4.7964,-4.8074,-4.8125,-4.8218,-4.8296,-4.8432,-4.8444,-4.851,-4.8559,-4.8614,-4.8675,-4.862,-4.8623,-4.8625,-4.879,-4.8778,-4.879,-4.8696,-4.8698,-4.87,-4.878,0,-4.7491,-4.7654,-4.7724,-4.7856,-4.7942,-4.7999,-4.8079,-4.8166,-4.8228,-4.8311,-4.838,-4.8474,-4.8483,-4.8524,-4.8581,-4.8655,-4.8708,-4.8651,-4.8768,-4.8771,-4.8737,-4.8805,-4.8793,-4.8864,-4.8792,-4.8794,-4.8795,0,-4.7592,-4.7686,-4.7826,-4.7945,-4.7984,-4.8054,-4.8162,-4.8241,-4.8342,-4.8383,-4.8458,-4.8505,-4.8603,-4.8592,-4.8728,-4.8687,-4.874,-4.8784,-4.8788,-4.88,-4.8784,-4.8816,-4.8888,-4.8898,-4.8814,-4.8812,-4.8811,0,-4.7595,-4.7756,-4.7861,-4.7911,-4.8053,-4.81,-4.8162,-4.8261,-4.8324,-4.8418,-4.846,-4.8564,-4.8621,-4.8701,-4.8775,-4.876,-4.8905,-4.8899,-4.8941,-4.8939,-4.8966,-4.8963,-4.9045,-4.9004,-4.9004,-4.9004,-4.9003,0,-4.7663,-4.7747,-4.7864,-4.7928,-4.8024,-4.8104,-4.8196,-4.8262,-4.835,-4.8428,-4.8485,-4.8557,-4.8652,-4.8736,-4.8795,-4.8899,-4.8925,-4.896,-4.8974,-4.8954,-4.8949,-4.8988,-4.8984,-4.9007,-4.9006,-4.9005,-4.9005,0,-4.7681,-4.7763,-4.7881,-4.8006,-4.8039,-4.8104,-4.8211,-4.8276,-4.8342,-4.844,-4.8468,-4.8571,-4.8673,-4.8756,-4.889,-4.893,-4.9038,-4.9055,-4.9003,-4.901,-4.9047,-4.9042,-4.9155,-4.9174,-4.9121,-4.9121,-4.9122,0,-4.7718,-4.7783,-4.7916,-4.7972,-4.8033,-4.8123,-4.8187,-4.8269,-4.8334,-4.8455,-4.8505,-4.8612,-4.8702,-4.8863,-4.895,-4.9054,-4.9072,-4.9105,-4.9088,-4.9066,-4.9071,-4.9065,-4.9072,-4.9106,-4.9106,-4.9106,-4.9106,0,-4.7774,-4.7812,-4.7902,-4.8008,-4.8083,-4.8169,-4.8257,-4.8301,-4.8399,-4.8469,-4.8575,-4.8644,-4.8782,-4.8887,-4.9,-4.9064,-4.9101,-4.9112,-4.9127,-4.9105,-4.9072,-4.9089,-4.9006,-4.9108,-4.9108,-4.9108,-4.9108,-4.9108,-4.7802,-4.7863,-4.7965,-4.8064,-4.814,-4.8221,-4.8288,-4.8362,-4.8452,-4.857,-4.8614,-4.8722,-4.8823,-4.8979,-4.9043,-4.913,-4.9133,-4.9154,-4.916,-4.9163,-4.916,-4.906,-4.9151,-4.9151,-4.9151,-4.9151,-4.9151,0,-4.786,-4.7929,-4.802,-4.8141,-4.8219,-4.8249,-4.8349,-4.8412,-4.8507,-4.8598,-4.8685,-4.8807,-4.891,-4.9006,-4.9114,-4.9164,-4.9184,-4.919,-4.9186,-4.92,-4.9152,-4.9127,-4.9172,-4.9172,-4.9172,-4.9172,-4.9172,-4.9172,-4.7899,-4.8004,-4.8054,-4.8197,-4.8266,-4.8372,-4.8426,-4.8502,-4.8575,-4.8709,-4.8794,-4.8856,-4.895,-4.9065,-4.9161,-4.9187,-4.9223,-4.9224,-4.9253,-4.9206,-4.9203,-4.92,-4.9177,-4.9231,-4.9231,-4.9294,-4.9295,-4.9295]},{"header":{"parameterUnit":"m.s-1","parameterCategory":1,"la1":30.2991,"la2":30.254,"lo1":-89.0895,"lo2":-89.0444,"dy":0.0017,"dx":0.0017,"nx":28,"ny":28,"refTime":"2025-04-04T21:00:00:Z","depth":0,"parameterNumber":3,"parameterNumberName":"V-component_of_WINDS"},"data":[0,0,0,0,0,0,0,0,0,0,0,0,0,0,0,0,0,0,0,0,0,0,0,0,0,0,0,0,0,0,0,0,0,0,0,0,0,0,0,0,0,0,0,0,0,0,0,0,0,0,0,0,0,0,0,0,0,0,4.4336,4.4337,0,4.4438,4.4439,4.444,4.4474,4.4473,4.4473,4.4473,4.4574,4.4577,4.4581,0,0,0,0,0,0,0,0,0,0,0,0,0,4.417,4.4173,4.4336,4.4337,4.4339,4.4438,4.4439,4.4441,4.4474,4.4473,4.4473,4.4472,4.4573,4.4577,4.4581,0,0,0,0,0,0,0,0,0,0,0,0,0,4.4254,4.4174,4.4336,4.4367,4.4371,4.4438,4.4439,4.4441,4.4474,4.4473,4.4473,4.4472,4.4572,4.4577,4.4581,4.4623,0,0,4.4596,4.4598,0,0,0,0,0,0,0,0,4.4249,4.426,4.4361,4.4365,4.437,4.4443,4.4418,4.4502,4.4474,4.4435,4.4473,4.4472,4.4531,4.4539,4.4559,4.4628,4.4632,4.4596,4.4599,4.4601,4.4602,0,0,0,0,0,0,0,4.4244,4.4256,4.4376,4.4363,4.4368,4.4376,4.4388,4.4434,4.4485,4.4438,4.4441,4.4453,4.4533,4.4555,4.4562,4.4634,4.4596,4.46,4.4603,4.4605,4.4745,4.4746,0,0,0,0,0,0,4.4233,4.4251,4.4373,4.4379,4.4307,4.438,4.4392,4.442,4.4485,4.4494,4.4453,4.4454,4.4547,4.4557,4.4566,4.4621,4.4601,4.4605,4.4608,4.4744,4.4745,4.4746,0,0,0,0,0,0,4.4229,4.4243,4.4369,4.4316,4.4333,4.4383,4.4414,4.4422,4.4444,4.4496,4.4505,4.4466,4.4547,4.4559,4.461,4.4625,4.4607,4.4612,4.4743,4.4744,4.4745,4.473,0,0,0,0,0,0,4.4224,4.4242,4.4258,4.4316,4.4335,4.4411,4.4415,4.4425,4.4452,4.4454,4.4511,4.4519,4.4547,4.4602,4.4614,4.4631,4.4615,4.4741,4.4743,4.4745,4.473,4.4731,4.4732,0,0,0,0,0,4.4218,4.4248,4.4258,4.4273,4.4357,4.4412,4.4423,4.4455,4.4453,4.447,4.4504,4.4518,4.4621,4.4607,4.4621,4.4639,4.4741,4.4743,4.4745,4.4729,4.4731,4.4732,0,0,0,0,0,0,4.4189,4.4256,4.4268,4.4319,4.4359,4.4417,4.444,4.4455,4.4497,4.4497,4.4535,4.4547,4.4595,4.4622,4.4605,4.4685,4.4682,4.4687,4.4665,4.4667,4.4668,4.4661,4.4619,0,0,0,0,0,4.4189,4.4228,4.4285,4.4324,4.4344,4.4388,4.4413,4.4435,4.4478,4.4495,4.4533,4.4574,4.4617,4.4643,4.4685,4.4734,4.4748,4.4754,4.4755,4.4756,4.4759,4.479,4.4794,4.4753,4.4753,4.4753,0,0,4.4188,4.423,4.4252,4.4319,4.4353,4.4393,4.4402,4.4444,4.4474,4.4501,4.4552,4.4581,4.463,4.468,4.4705,4.4704,4.4774,4.4758,4.4758,4.4762,4.4792,4.4796,4.48,4.4754,4.4754,4.4754,0,0,4.4208,4.4242,4.428,4.4315,4.4367,4.4397,4.4406,4.4462,4.4483,4.4535,4.4557,4.4594,4.4665,4.47,4.4726,4.4762,4.4777,4.4775,4.4781,4.4811,4.4814,4.4817,4.4832,4.4836,4.4778,4.4778,4.4778,0,4.42,4.4262,4.4297,4.4339,4.4368,4.4397,4.4435,4.4467,4.453,4.455,4.4549,4.4641,4.4675,4.4736,4.4745,4.4765,4.4778,4.4768,4.4811,4.4814,4.4818,4.4832,4.4837,4.4778,4.4778,4.4778,4.4778,0,4.4251,4.4293,4.4317,4.4379,4.4412,4.4451,4.4493,4.4521,4.4541,4.4571,4.4625,4.4668,4.4719,4.4735,4.4754,4.4799,4.4798,4.4803,4.4801,4.482,4.4835,4.484,4.4777,4.4777,4.4777,4.4778,0,0,4.4253,4.4336,4.4345,4.4374,4.4435,4.4469,4.4511,4.4563,4.4588,4.463,4.4667,4.4728,4.4735,4.4766,4.4789,4.4814,4.4843,4.4817,4.4819,4.4822,4.4897,4.4894,4.4899,4.4853,4.4854,4.4855,4.4894,0,4.4282,4.4359,4.4393,4.4454,4.4495,4.4524,4.4561,4.4603,4.4632,4.4672,4.4704,4.4748,4.4752,4.4771,4.4798,4.4833,4.4858,4.4831,4.4888,4.4889,4.4876,4.4906,4.4902,4.4937,4.4899,4.49,4.4901,0,4.4325,4.437,4.4436,4.4495,4.4513,4.4546,4.4598,4.4635,4.4683,4.4703,4.4739,4.4762,4.4808,4.4803,4.4867,4.4848,4.4873,4.4894,4.4896,4.4903,4.4897,4.4915,4.4949,4.4954,4.491,4.4909,4.4908,0,4.4322,4.4399,4.445,4.4474,4.4543,4.4566,4.4596,4.4644,4.4674,4.4719,4.4739,4.4789,4.4816,4.4854,4.489,4.4883,4.4952,4.4949,4.4971,4.497,4.4984,4.4983,4.5023,4.4998,4.4998,4.4998,4.4998,0,4.4351,4.4391,4.445,4.4481,4.4526,4.4566,4.461,4.4642,4.4685,4.4723,4.4751,4.4786,4.483,4.4871,4.49,4.495,4.4962,4.498,4.4987,4.4978,4.4976,4.4995,4.4994,4.5,4.4999,4.4999,4.4999,0,4.4356,4.4397,4.4454,4.4516,4.4533,4.4564,4.4617,4.4648,4.4681,4.4729,4.4742,4.4792,4.4842,4.4882,4.4946,4.4966,4.5019,4.5026,4.5003,4.5007,4.5027,4.5025,4.5082,4.5092,4.5059,4.506,4.506,0,4.4372,4.4403,4.447,4.4498,4.4528,4.4572,4.4604,4.4645,4.4676,4.4736,4.4761,4.4813,4.4857,4.4936,4.4978,4.5028,4.5038,4.5054,4.5045,4.5036,4.504,4.5038,4.5042,4.5055,4.5055,4.5055,4.5056,0,4.4396,4.4416,4.4461,4.4514,4.4551,4.4594,4.4638,4.466,4.4708,4.4743,4.4796,4.483,4.4898,4.495,4.5005,4.5036,4.5054,4.5058,4.5066,4.5058,4.5044,4.5053,4.5007,4.5057,4.5057,4.5056,4.5056,4.5056,4.4408,4.4439,4.4491,4.4541,4.4579,4.462,4.4653,4.4691,4.4735,4.4795,4.4816,4.487,4.492,4.4997,4.5028,4.5072,4.5073,4.5084,4.5087,4.5089,4.5089,4.5036,4.5082,4.5082,4.5082,4.5082,4.5082,0,4.4436,4.4472,4.4517,4.4579,4.4619,4.4634,4.4684,4.4716,4.4764,4.481,4.4853,4.4915,4.4966,4.5014,4.5067,4.5093,4.5103,4.5106,4.5105,4.5112,4.5084,4.5073,4.5097,4.5097,4.5097,4.5097,4.5097,4.5097,4.4455,4.4508,4.4534,4.4607,4.4642,4.4697,4.4724,4.4763,4.48,4.4868,4.4911,4.4942,4.4989,4.5047,4.5096,4.5108,4.5128,4.5128,4.5143,4.5116,4.5114,4.5112,4.5102,4.5132,4.5132,4.5168,4.5169,4.5169]}]]